Regional Weather Roundup
Issued by NWS

Home | Current Version | Previous Version | Graphics & Text | Print | Product List | Glossary Off
Versions: 1 2 3 4 5 6 7 8 9 10 11 12 13 14 15 16 17 18 19 20 21 22 23 24 25 26 27 28 29 30 31 32 33 34 35 36 37 38 39 40 41 42 43 44 45 46 47 48 49 50

000
ASUS43 KTOP 310408
RWRKS

WEATHER ROUNDUP FOR KANSAS
NATIONAL WEATHER SERVICE GOODLAND KS
1100 PM CDT SUN AUG 30 2015

NOTE:  "FAIR" INDICATES FEW OR NO CLOUDS BELOW 12,000 FEET WITH NO
SIGNIFICANT WEATHER AND/OR OBSTRUCTIONS TO VISIBILITY.

KSZ001>006-013>018-027>032-041>047-310500-
NORTHWEST KANSAS

CITY           SKY/WX    TMP DP  RH WIND       PRES   REMARKS
GOODLAND       CLEAR     67  43  41 S12       29.98S
HAYS           CLEAR     66  55  68 SE8       29.97S
HILL CITY      PTCLDY    71  57  61 E7        29.96S
RUSSELL        CLEAR     70  62  76 SE13      29.96S
$$

KSZ061>065-074>080-084>089-310500-
SOUTHWEST KANSAS

CITY           SKY/WX    TMP DP  RH WIND       PRES   REMARKS
DODGE CITY     CLEAR     66  56  70 SE10      29.98S
ELKHART          N/A     67  51  56 S10         N/A
GARDEN CITY    CLEAR     67  53  61 SE10      29.97R
GREAT BEND     CLEAR     70  61  73 SE10      29.97S
LIBERAL        CLEAR     72  48  43 SE10      29.99R
PRATT          CLEAR     70  59  68 CALM      29.99S
$$

KSZ066>073-081>083-090>101-310500-
SOUTHEAST KANSAS

CITY           SKY/WX    TMP DP  RH WIND       PRES   REMARKS
CHANUTE        PTCLDY    72  70  93 CALM      29.97S
COFFEYVILLE    CLEAR     72  71  97 E3        29.95S FOG
HUTCHINSON     CLEAR     67  62  84 E7        29.97S
MEDICINE LODGE   N/A     74  64  71 SE6       29.95S
NEWTON         CLEAR     70  63  78 SE6       30.00F
PARSONS        CLEAR     73  72  96 CALM      29.96F FOG
WICHITA INTL   CLEAR     74  68  81 SE9       29.96S
WICHITA JABRA  CLEAR     71  67  87 SE6       29.97S
WICHITA MCCONL CLEAR     73  68  83 E8        29.96F
WINFIELD       CLEAR     72  69  90 E3        29.97F
$$

KSZ007>012-019>026-033>040-048>060-102>105-310500-
NORTHEAST KANSAS

CITY           SKY/WX    TMP DP  RH WIND       PRES   REMARKS
CONCORDIA      CLEAR     65  63  93 SE7       29.97F
EMPORIA        PTCLDY    69  67  93 S3        29.98S
LAWRENCE       MOCLDY    68  66  93 CALM      29.97S FOG
MANHATTAN      CLEAR     69  67  93 CALM      29.97S
MARYSVILLE     CLEAR    N/A N/A N/A CALM      29.98S
OLATHE IND     PTCLDY    74  69  85 E3        29.99S
OLATHE EXE     MOCLDY    75  70  84 CALM      29.98S
SALINA         PTCLDY    74  66  76 SE6       29.97S
TOPEKA BILLARD CLEAR     70  68  93 CALM      29.97S
TOPEKA FORBES  PTCLDY    71  67  87 CALM      29.98S FOG
$$


USA.gov is the U.S. government's official web portal to all federal, state and local government web resources and services.